PTO11 EDXW-EDAH

Flight info

Callsign PTO11
Flight time 0h 55m
Altitude 37000
Route OLDIP1B OLDIP DCT PENET
Aircraft C525/L-SDFGRWY/S

Departure

Time 2026-05-06 18:39
Airport Westerland Sylt Airport (EDXW)

Arrival

Time 2026-05-06 19:35
Airport Heringsdorf Airport (EDAH)
Time Latitude Longitude Altitude Speed Heading
2026-05-06 18:21 54.91299 8.32473 27 ft 0 kts 72°
2026-05-06 18:32 54.91301 8.32481 27 ft 1 kts 71°
2026-05-06 18:33 54.91303 8.32510 27 ft 3 kts 104°
2026-05-06 18:33 54.91273 8.32549 27 ft 7 kts 158°
2026-05-06 18:33 54.91217 8.32596 28 ft 9 kts 154°
2026-05-06 18:33 54.91150 8.32645 28 ft 11 kts 140°
2026-05-06 18:34 54.91085 8.32746 28 ft 13 kts 109°
2026-05-06 18:34 54.91050 8.32906 29 ft 14 kts 118°
2026-05-06 18:34 54.90982 8.33054 29 ft 16 kts 137°
2026-05-06 18:34 54.90882 8.33170 29 ft 18 kts 155°
2026-05-06 18:35 54.90752 8.33220 29 ft 20 kts 175°
2026-05-06 18:35 54.90600 8.33239 29 ft 22 kts 175°
2026-05-06 18:35 54.90441 8.33309 28 ft 24 kts 155°
2026-05-06 18:35 54.90319 8.33496 28 ft 22 kts 124°
2026-05-06 18:36 54.90260 8.33740 29 ft 20 kts 99°
2026-05-06 18:36 54.90241 8.33974 30 ft 18 kts 99°
2026-05-06 18:36 54.90239 8.34176 31 ft 15 kts 81°
2026-05-06 18:36 54.90254 8.34344 32 ft 12 kts 78°
2026-05-06 18:37 54.90268 8.34480 33 ft 10 kts 79°
2026-05-06 18:37 54.90282 8.34609 33 ft 11 kts 78°
2026-05-06 18:37 54.90297 8.34750 34 ft 12 kts 79°
2026-05-06 18:37 54.90313 8.34901 34 ft 13 kts 80°
2026-05-06 18:38 54.90335 8.35069 35 ft 15 kts 60°
2026-05-06 18:38 54.90416 8.35169 35 ft 16 kts 337°
2026-05-06 18:38 54.90530 8.35032 35 ft 33 kts 324°
2026-05-06 18:38 54.90888 8.34591 34 ft 91 kts 324°
2026-05-06 18:39 54.91508 8.33826 152 ft 120 kts 330°
2026-05-06 18:39 54.92240 8.33026 574 ft 127 kts 333°
2026-05-06 18:39 54.93024 8.32206 1032 ft 138 kts 333°
2026-05-06 18:40 54.94675 8.30113 2054 ft 158 kts 328°
2026-05-06 18:40 54.95577 8.28933 2568 ft 168 kts 328°
2026-05-06 18:40 54.96544 8.27692 3082 ft 178 kts 328°
2026-05-06 18:40 54.97553 8.26414 3586 ft 188 kts 327°
2026-05-06 18:41 54.98375 8.24557 4082 ft 206 kts 289°
2026-05-06 18:41 54.98303 8.22051 4594 ft 218 kts 250°
2026-05-06 18:41 54.97576 8.19751 5098 ft 223 kts 237°
2026-05-06 18:41 54.96677 8.17518 5611 ft 228 kts 234°
2026-05-06 18:42 54.95737 8.15301 6098 ft 231 kts 233°
2026-05-06 18:42 54.94494 8.13566 6582 ft 234 kts 200°
2026-05-06 18:42 54.92909 8.13435 7062 ft 235 kts 165°
2026-05-06 18:42 54.91451 8.14661 7552 ft 235 kts 147°
2026-05-06 18:43 54.90097 8.16276 8025 ft 238 kts 143°
2026-05-06 18:43 54.88768 8.18020 8524 ft 243 kts 141°
2026-05-06 18:43 54.87443 8.19819 9000 ft 248 kts 141°
2026-05-06 18:43 54.86092 8.21680 9499 ft 253 kts 141°
2026-05-06 18:44 54.84697 8.23620 9997 ft 260 kts 141°
2026-05-06 18:44 54.83275 8.25606 10479 ft 265 kts 141°
2026-05-06 18:44 54.81791 8.27470 10953 ft 269 kts 147°
2026-05-06 18:44 54.80205 8.29233 11437 ft 273 kts 148°
2026-05-06 18:45 54.78593 8.30983 11946 ft 277 kts 148°
2026-05-06 18:45 54.76944 8.32764 12437 ft 279 kts 148°
2026-05-06 18:45 54.75309 8.34532 12921 ft 282 kts 148°
2026-05-06 18:45 54.73647 8.36331 13397 ft 283 kts 148°
2026-05-06 18:46 54.71978 8.38139 13869 ft 284 kts 148°
2026-05-06 18:46 54.70301 8.39957 14347 ft 285 kts 149°
2026-05-06 18:46 54.68782 8.42088 14797 ft 288 kts 128°
2026-05-06 18:46 54.67810 8.45066 15286 ft 288 kts 116°
2026-05-06 18:47 54.66997 8.48221 15769 ft 288 kts 113°
2026-05-06 18:47 54.66238 8.51374 16242 ft 287 kts 113°
2026-05-06 18:47 54.65488 8.54547 16714 ft 287 kts 113°
2026-05-06 18:47 54.64735 8.57739 17187 ft 285 kts 113°
2026-05-06 18:48 54.63995 8.60879 17653 ft 284 kts 113°
2026-05-06 18:48 54.63249 8.64034 18125 ft 283 kts 114°
2026-05-06 18:48 54.62515 8.67136 18595 ft 281 kts 115°
2026-05-06 18:48 54.61832 8.70254 19056 ft 280 kts 108°
2026-05-06 18:49 54.61452 8.73545 19538 ft 279 kts 101°
2026-05-06 18:49 54.61174 8.76799 20015 ft 276 kts 100°
2026-05-06 18:49 54.60915 8.80060 20490 ft 273 kts 100°
2026-05-06 18:49 54.60664 8.83239 20955 ft 270 kts 100°
2026-05-06 18:50 54.60412 8.86410 21429 ft 267 kts 100°
2026-05-06 18:50 54.60159 8.89559 21902 ft 263 kts 101°
2026-05-06 18:50 54.59910 8.92626 22370 ft 259 kts 101°
2026-05-06 18:50 54.59662 8.95661 22837 ft 254 kts 101°
2026-05-06 18:51 54.59417 8.98633 23293 ft 249 kts 101°
2026-05-06 18:51 54.59171 9.01596 23541 ft 254 kts 101°
2026-05-06 18:51 54.58919 9.04603 23864 ft 256 kts 101°
2026-05-06 18:51 54.58666 9.07622 24228 ft 256 kts 101°
2026-05-06 18:52 54.58411 9.10648 24583 ft 257 kts 101°
2026-05-06 18:52 54.58154 9.13679 24923 ft 258 kts 101°
2026-05-06 18:52 54.57894 9.16741 25263 ft 259 kts 101°
2026-05-06 18:52 54.57631 9.19832 25592 ft 261 kts 101°
2026-05-06 18:53 54.57371 9.22878 25922 ft 262 kts 102°
2026-05-06 18:53 54.57106 9.25971 26250 ft 262 kts 101°
2026-05-06 18:53 54.56841 9.29065 26585 ft 263 kts 101°
2026-05-06 18:53 54.56570 9.32199 26896 ft 264 kts 101°
2026-05-06 18:54 54.56299 9.35340 27208 ft 266 kts 102°
2026-05-06 18:54 54.56029 9.38448 27526 ft 266 kts 102°
2026-05-06 18:54 54.55754 9.41605 27830 ft 267 kts 102°
2026-05-06 18:54 54.55479 9.44748 28190 ft 267 kts 101°
2026-05-06 18:55 54.55202 9.47925 28482 ft 269 kts 102°
2026-05-06 18:55 54.54925 9.51075 28823 ft 269 kts 102°
2026-05-06 18:55 54.54643 9.54277 29128 ft 271 kts 102°
2026-05-06 18:55 54.54360 9.57482 29442 ft 271 kts 102°
2026-05-06 18:56 54.54076 9.60677 29739 ft 272 kts 102°
2026-05-06 18:56 54.53793 9.63873 30052 ft 273 kts 102°
2026-05-06 18:56 54.53502 9.67133 30353 ft 274 kts 103°
2026-05-06 18:56 54.53211 9.70373 30634 ft 275 kts 103°
2026-05-06 18:57 54.52920 9.73614 30933 ft 275 kts 103°
2026-05-06 18:57 54.52628 9.76867 31193 ft 276 kts 103°
2026-05-06 18:57 54.52330 9.80158 31409 ft 279 kts 103°
2026-05-06 18:57 54.52030 9.83469 31694 ft 279 kts 103°
2026-05-06 18:58 54.51729 9.86781 31934 ft 280 kts 103°
2026-05-06 18:58 54.51425 9.90115 32140 ft 282 kts 102°
2026-05-06 18:58 54.51117 9.93474 32372 ft 283 kts 102°
2026-05-06 18:58 54.50814 9.96781 32610 ft 284 kts 102°
2026-05-06 18:59 54.50503 10.00152 32831 ft 285 kts 103°
2026-05-06 18:59 54.50192 10.03520 33049 ft 286 kts 102°
2026-05-06 18:59 54.49882 10.06866 33244 ft 288 kts 102°
2026-05-06 18:59 54.49564 10.10289 33478 ft 289 kts 102°
2026-05-06 19:00 54.49248 10.13675 33680 ft 291 kts 102°
2026-05-06 19:00 54.48929 10.17088 33869 ft 292 kts 102°
2026-05-06 19:00 54.48603 10.20561 34050 ft 294 kts 102°
2026-05-06 19:00 54.48279 10.24004 34263 ft 294 kts 102°
2026-05-06 19:01 54.47948 10.27504 34401 ft 297 kts 102°
2026-05-06 19:01 54.47618 10.30991 34574 ft 298 kts 102°
2026-05-06 19:01 54.47284 10.34504 34752 ft 299 kts 102°
2026-05-06 19:01 54.46948 10.38025 34911 ft 301 kts 102°
2026-05-06 19:02 54.46613 10.41528 35045 ft 302 kts 103°
2026-05-06 19:02 54.46271 10.45092 35186 ft 303 kts 102°
2026-05-06 19:02 54.45931 10.48626 35317 ft 303 kts 102°
2026-05-06 19:02 54.45584 10.52221 35447 ft 304 kts 102°
2026-05-06 19:03 54.45237 10.55799 35583 ft 305 kts 102°
2026-05-06 19:03 54.44780 10.59309 35706 ft 304 kts 110°
2026-05-06 19:03 54.44123 10.62760 35838 ft 303 kts 112°
2026-05-06 19:03 54.43428 10.66157 35949 ft 304 kts 114°
2026-05-06 19:04 54.42720 10.69571 36052 ft 305 kts 114°
2026-05-06 19:04 54.42007 10.73006 36171 ft 305 kts 114°
2026-05-06 19:04 54.41296 10.76435 36273 ft 307 kts 114°
2026-05-06 19:04 54.40583 10.79868 36384 ft 307 kts 114°
2026-05-06 19:05 54.39868 10.83318 36477 ft 308 kts 114°
2026-05-06 19:05 54.39150 10.86781 36586 ft 309 kts 114°
2026-05-06 19:05 54.38434 10.90233 36632 ft 312 kts 114°
2026-05-06 19:05 54.37694 10.93776 36462 ft 326 kts 114°
2026-05-06 19:06 54.36910 10.97529 36274 ft 339 kts 114°
2026-05-06 19:06 54.36102 11.01398 36095 ft 352 kts 113°
2026-05-06 19:06 54.35273 11.05364 35914 ft 363 kts 113°
2026-05-06 19:06 54.34404 11.09521 35736 ft 374 kts 113°
2026-05-06 19:07 54.33525 11.13714 35543 ft 384 kts 113°
2026-05-06 19:07 54.32617 11.18043 35352 ft 393 kts 113°
2026-05-06 19:07 54.31683 11.22488 35154 ft 401 kts 113°
2026-05-06 19:07 54.30730 11.27013 34975 ft 405 kts 113°
2026-05-06 19:08 54.29792 11.31471 34915 ft 401 kts 113°
2026-05-06 19:08 54.27919 11.40336 34887 ft 391 kts 113°
2026-05-06 19:09 54.26094 11.48929 34878 ft 382 kts 113°
2026-05-06 19:09 54.25184 11.53190 34576 ft 383 kts 113°
2026-05-06 19:09 54.24273 11.57452 34252 ft 381 kts 113°
2026-05-06 19:09 54.23372 11.61655 33771 ft 380 kts 113°
2026-05-06 19:10 54.22464 11.65882 33259 ft 378 kts 114°
2026-05-06 19:10 54.21561 11.70080 32730 ft 376 kts 113°
2026-05-06 19:10 54.20657 11.74273 32121 ft 374 kts 113°
2026-05-06 19:10 54.19774 11.78359 31523 ft 371 kts 113°
2026-05-06 19:11 54.18882 11.82475 30907 ft 368 kts 112°
2026-05-06 19:11 54.18010 11.86495 30240 ft 366 kts 113°
2026-05-06 19:11 54.17124 11.90569 29562 ft 363 kts 112°
2026-05-06 19:11 54.16259 11.94541 28901 ft 362 kts 112°
2026-05-06 19:12 54.15382 11.98559 28230 ft 360 kts 112°
2026-05-06 19:12 54.14524 12.02482 27573 ft 358 kts 112°
2026-05-06 19:12 54.13660 12.06426 26913 ft 357 kts 112°
2026-05-06 19:12 54.12791 12.10383 26251 ft 355 kts 112°
2026-05-06 19:13 54.11936 12.14270 25598 ft 354 kts 112°
2026-05-06 19:13 54.11076 12.18178 24949 ft 353 kts 112°
2026-05-06 19:13 54.10216 12.22073 24305 ft 351 kts 111°
2026-05-06 19:13 54.09360 12.25935 23673 ft 350 kts 112°
2026-05-06 19:14 54.08514 12.29755 23060 ft 349 kts 112°
2026-05-06 19:14 54.07659 12.33606 22438 ft 348 kts 112°
2026-05-06 19:14 54.06804 12.37451 21815 ft 347 kts 112°
2026-05-06 19:14 54.05949 12.41287 21227 ft 346 kts 112°
2026-05-06 19:15 54.05107 12.45057 20668 ft 344 kts 112°
2026-05-06 19:15 54.04261 12.48844 20099 ft 342 kts 113°
2026-05-06 19:15 54.03424 12.52579 19554 ft 341 kts 113°
2026-05-06 19:15 54.02586 12.56315 19002 ft 339 kts 113°
2026-05-06 19:16 54.01744 12.60059 18428 ft 339 kts 113°
2026-05-06 19:16 54.00917 12.63733 17911 ft 338 kts 113°
2026-05-06 19:16 54.00075 12.67463 17365 ft 336 kts 114°
2026-05-06 19:16 53.99247 12.71127 16818 ft 335 kts 114°
2026-05-06 19:17 53.98415 12.74799 16275 ft 333 kts 114°
2026-05-06 19:17 53.97589 12.78449 15738 ft 331 kts 114°
2026-05-06 19:17 53.96766 12.82070 15241 ft 327 kts 114°
2026-05-06 19:17 53.95955 12.85624 14798 ft 322 kts 114°
2026-05-06 19:18 53.95158 12.89131 14343 ft 317 kts 113°
2026-05-06 19:18 53.94373 12.92558 13929 ft 312 kts 114°
2026-05-06 19:18 53.93593 12.95980 13469 ft 309 kts 113°
2026-05-06 19:18 53.92825 12.99337 13023 ft 305 kts 112°
2026-05-06 19:19 53.92061 13.02648 12571 ft 303 kts 112°
2026-05-06 19:19 53.91302 13.05952 12123 ft 301 kts 111°
2026-05-06 19:19 53.90554 13.09203 11676 ft 296 kts 111°
2026-05-06 19:19 53.89817 13.12400 11292 ft 285 kts 111°
2026-05-06 19:20 53.89100 13.15503 10910 ft 277 kts 110°
2026-05-06 19:20 53.88412 13.18481 10527 ft 271 kts 110°
2026-05-06 19:20 53.87733 13.21413 10145 ft 265 kts 110°
2026-05-06 19:20 53.87064 13.24298 9757 ft 261 kts 109°
2026-05-06 19:21 53.86405 13.27135 9371 ft 257 kts 109°
2026-05-06 19:21 53.85754 13.29935 8987 ft 254 kts 109°
2026-05-06 19:21 53.85112 13.32693 8603 ft 252 kts 109°
2026-05-06 19:21 53.84479 13.35405 8225 ft 250 kts 109°
2026-05-06 19:22 53.83841 13.38141 7842 ft 248 kts 109°
2026-05-06 19:22 53.83213 13.40828 7466 ft 247 kts 109°
2026-05-06 19:22 53.82585 13.43518 7079 ft 245 kts 109°
2026-05-06 19:22 53.81963 13.46173 6704 ft 243 kts 108°
2026-05-06 19:23 53.81347 13.48793 6315 ft 242 kts 108°
2026-05-06 19:23 53.80728 13.51436 5933 ft 240 kts 108°
2026-05-06 19:23 53.80119 13.54027 5558 ft 239 kts 108°
2026-05-06 19:23 53.79506 13.56632 5167 ft 237 kts 108°
2026-05-06 19:24 53.78895 13.59207 4781 ft 235 kts 107°
2026-05-06 19:24 53.78301 13.61733 4414 ft 233 kts 108°
2026-05-06 19:24 53.77706 13.64255 4049 ft 231 kts 107°
2026-05-06 19:24 53.77488 13.66798 3953 ft 208 kts 75°
2026-05-06 19:25 53.78213 13.68703 3951 ft 191 kts 39°
2026-05-06 19:25 53.79327 13.69757 3937 ft 180 kts 26°
2026-05-06 19:25 53.80502 13.70511 3801 ft 180 kts 22°
2026-05-06 19:25 53.81697 13.71125 3662 ft 179 kts 19°
2026-05-06 19:26 53.82887 13.71658 3509 ft 178 kts 17°
2026-05-06 19:26 53.84082 13.72132 3368 ft 178 kts 16°
2026-05-06 19:26 53.85283 13.72568 3253 ft 176 kts 17°
2026-05-06 19:26 53.86490 13.72974 3113 ft 176 kts 15°
2026-05-06 19:27 53.87683 13.73358 3001 ft 174 kts 15°
2026-05-06 19:27 53.88854 13.73715 2980 ft 167 kts 16°
2026-05-06 19:27 53.89967 13.74044 2978 ft 161 kts 15°
2026-05-06 19:27 53.91056 13.74363 2983 ft 157 kts 13°
2026-05-06 19:28 53.92124 13.74677 2965 ft 154 kts 14°
2026-05-06 19:28 53.93125 13.75093 2954 ft 148 kts 33°
2026-05-06 19:28 53.93633 13.76508 2978 ft 141 kts 79°
2026-05-06 19:28 53.93710 13.78131 2978 ft 139 kts 76°
2026-05-06 19:29 53.93750 13.79777 2981 ft 142 kts 92°
2026-05-06 19:29 53.93505 13.81408 3005 ft 146 kts 102°
2026-05-06 19:29 53.93169 13.83071 3002 ft 151 kts 103°
2026-05-06 19:29 53.92841 13.84804 2997 ft 155 kts 101°
2026-05-06 19:30 53.92533 13.86574 2998 ft 159 kts 101°
2026-05-06 19:30 53.92233 13.88419 3001 ft 163 kts 99°
2026-05-06 19:30 53.91937 13.90288 2995 ft 167 kts 99°
2026-05-06 19:30 53.91625 13.92243 2758 ft 178 kts 100°
2026-05-06 19:31 53.91291 13.94304 2483 ft 181 kts 100°
2026-05-06 19:31 53.90971 13.96254 2206 ft 166 kts 99°
2026-05-06 19:31 53.90403 13.99742 1784 ft 144 kts 99°
2026-05-06 19:32 53.90144 14.01338 1603 ft 135 kts 99°
2026-05-06 19:32 53.89910 14.02771 1427 ft 125 kts 98°
2026-05-06 19:32 53.89685 14.04152 1246 ft 116 kts 99°
2026-05-06 19:32 53.89440 14.05416 1044 ft 110 kts 104°
2026-05-06 19:33 53.89200 14.06608 876 ft 99 kts 98°
2026-05-06 19:33 53.89027 14.07723 750 ft 99 kts 97°
2026-05-06 19:33 53.88876 14.08836 663 ft 95 kts 95°
2026-05-06 19:33 53.88720 14.09931 547 ft 96 kts 99°
2026-05-06 19:34 53.88549 14.11039 393 ft 99 kts 99°
2026-05-06 19:34 53.88374 14.12146 290 ft 96 kts 100°
2026-05-06 19:34 53.88196 14.13251 146 ft 97 kts 106°
2026-05-06 19:34 53.88022 14.14278 71 ft 81 kts 104°
2026-05-06 19:35 53.87897 14.15075 70 ft 57 kts 105°
2026-05-06 19:35 53.87802 14.15636 85 ft 42 kts 109°
2026-05-06 19:35 53.87732 14.16077 91 ft 36 kts 102°
2026-05-06 19:35 53.87668 14.16468 92 ft 32 kts 104°
2026-05-06 19:36 53.87607 14.16778 91 ft 16 kts 135°
2026-05-06 19:36 53.87556 14.16740 92 ft 7 kts 219°
2026-05-06 19:36 53.87512 14.16680 92 ft 9 kts 220°
2026-05-06 19:36 53.87464 14.16585 93 ft 12 kts 247°
2026-05-06 19:37 53.87483 14.16439 92 ft 14 kts 290°
2026-05-06 19:37 53.87519 14.16260 92 ft 17 kts 288°
2026-05-06 19:37 53.87569 14.16053 91 ft 20 kts 295°
2026-05-06 19:37 53.87633 14.15804 89 ft 25 kts 292°
2026-05-06 19:38 53.87705 14.15503 82 ft 30 kts 292°
2026-05-06 19:38 53.87766 14.15158 73 ft 31 kts 274°
2026-05-06 19:38 53.87784 14.14789 66 ft 31 kts 271°
2026-05-06 19:38 53.87804 14.14428 68 ft 29 kts 274°
2026-05-06 19:39 53.87877 14.14141 72 ft 25 kts 299°
2026-05-06 19:39 53.87928 14.13950 74 ft 9 kts 223°
2026-05-06 19:39 53.87908 14.13922 75 ft 2 kts 261°
2026-05-06 19:39 53.87912 14.13905 75 ft 0 kts 297°